This is the latest recevied weather packets stored in our database for station/object N7CEE. If no packets are shown the sender has not sent any weather packets the latest 10 day(s).
| Time | Temp. | Humidity | Pressure | Rain* | Wind** | Luminosity | Snow |
|---|---|---|---|---|---|---|---|
| 1777301507 | 4.44° C | 67% | 1020 hPa | 0 mm | - | 44 W/m² | - |
| 1777301203 | 4.44° C | 68% | 1019.9 hPa | 0 mm | - | 42 W/m² | - |
| 1777300900 | 3.89° C | 69% | 1019.9 hPa | 0 mm | - | 41 W/m² | - |
| 1777300598 | 3.89° C | 71% | 1019.9 hPa | 0 mm | - | 30 W/m² | - |
| 1777300296 | 3.33° C | 73% | 1020 hPa | 0 mm | - | 29 W/m² | - |
| 1777299992 | 3.33° C | 74% | 1019.9 hPa | 0 mm | - | 28 W/m² | - |
| 1777299689 | 2.78° C | 76% | 1020 hPa | 0 mm | - | 26 W/m² | - |
| 1777299386 | 2.22° C | 78% | 1020.2 hPa | 0 mm | - | 35 W/m² | - |
| 1777299084 | 1.67° C | 80% | 1019.9 hPa | 0 mm | - | 28 W/m² | - |
| 1777298781 | 1.11° C | 82% | 1020 hPa | 0 mm | - | 34 W/m² | - |
| 1777298478 | 0.56° C | 83% | 1019.9 hPa | 0 mm | - | 24 W/m² | - |
| 1777298174 | 0.56° C | 84% | 1019.9 hPa | 0 mm | - | 29 W/m² | - |
| 1777297869 | 0° C | 85% | 1019.9 hPa | 0 mm | - | 22 W/m² | - |
| 1777297567 | 0° C | 86% | 1019.8 hPa | 0 mm | - | 20 W/m² | - |
| 1777297263 | -0.56° C | 88% | 1019.8 hPa | 0 mm | - | 19 W/m² | - |
| 1777296960 | -1.11° C | 89% | 1019.9 hPa | 0 mm | - | 20 W/m² | - |
| 1777296657 | -1.11° C | 90% | 1019.8 hPa | 0 mm | - | 18 W/m² | - |
| 1777296333 | -1.11° C | 92% | 1019.7 hPa | 0 mm | - | 19 W/m² | - |
| 1777296028 | -1.67° C | 93% | 1019.7 hPa | 0 mm | - | 16 W/m² | - |
| 1777295726 | -1.67° C | 93% | 1019.8 hPa | 0 mm | - | 13 W/m² | - |
| 1777295424 | -1.67° C | 94% | 1019.7 hPa | 0 mm | - | 12 W/m² | - |
| 1777295121 | -2.22° C | 94% | 1019.5 hPa | 0 mm | - | 10 W/m² | - |
| 1777294818 | -2.22° C | 94% | 1019.4 hPa | 0 mm | - | 9 W/m² | - |
| 1777294512 | -2.22° C | 94% | 1019.3 hPa | 0 mm | - | 7 W/m² | - |
| 1777294210 | -2.22° C | 94% | 1019.4 hPa | 0 mm | - | 5 W/m² | - |
* Rain latest hour (hover to see other rain measurements)
** Current wind speed in m/s (hover to see current wind gust speed)